Twentynine Palms, CA

11:55 AM PST on February 14, 2016 (GMT -0800)
Twentynine Palms Expeditionary Air Field

Weather History for KNXP - June, 2012

Change the Weather History Date:

Saturday, June 23, 2012

  Actual Average Record
Temperature  
Mean Temperature 82 °F -  
Max Temperature 98 °F 96 °F 108 °F (2011)
Min Temperature 66 °F 71 °F 66 °F (2003)
Cooling Degree Days 16    
Growing Degree Days 32 (Base 50)    
Moisture  
Dew Point 33 °F    
Average Humidity 20    
Maximum Humidity 39    
Minimum Humidity 7    
Precipitation  
Precipitation 0.00 in - - ()
Sea Level Pressure  
Sea Level Pressure 29.70 in    
Wind  
Wind Speed 8 mph (SW)    
Max Wind Speed 17 mph    
Max Gust Speed 24 mph    
Visibility 10 miles    
Events      
Averages and records for this station are not official NWS values.
T = Trace of Precipitation, MM = Missing Value Source: NWS Daily Summary

Daily Weather History Graph

Daily Weather History Graph

Search for Another Location

Airport or City:

Trip Planner

Search our weather history database for the weather conditions in past years. The results will help you decide how hot, cold, wet, or windy it might be!

Date:

Astronomy

Jun. 23, 2012 Rise Set
Actual Time 5:33 AM PDT 8:00 PM PDT
Civil Twilight 5:04 AM PDT 8:29 PM PDT
Nautical Twilight 4:28 AM PDT 9:05 PM PDT
Astronomical Twilight 3:48 AM PDT 9:45 PM PDT
Moon 9:30 AM PDT (6/23) 10:43 PM PDT (6/23)
Length of Visible Light 15h 25m
Length of Day
14h 26m
Waxing Crescent, 17% of the Moon is Illuminated
Jun 23
Waxing Crescent
Jun 26
First Quarter
Jul 3
Full
Jul 10
Last Quarter
Jul 18
New

Hourly Weather History & Observations

Time (PDT) Temp. Dew Point Humidity Pressure Visibility Wind Dir Wind Speed Gust Speed Precip Events Conditions
12:56 AM 75.9 °F 41.0 °F 29% 29.70 in 10.0 mi WNW 9.2 mph - N/A   Unknown
1:56 AM 73.9 °F 42.1 °F 32% 29.69 in 10.0 mi WNW 10.4 mph - N/A   Unknown
2:56 AM 72.0 °F 42.1 °F 34% 29.68 in 10.0 mi WNW 12.7 mph - N/A   Unknown
3:56 AM 70.0 °F 42.1 °F 36% 29.69 in 10.0 mi NNW 3.5 mph - N/A   Unknown
4:56 AM 70.0 °F 41.0 °F 35% 29.70 in 10.0 mi WNW 6.9 mph - N/A   Unknown
5:56 AM 66.9 °F 41.0 °F 39% 29.70 in 9.0 mi West 3.5 mph - N/A   Unknown
6:56 AM 69.1 °F 39.9 °F 35% 29.73 in 10.0 mi WNW 8.1 mph - N/A   Unknown
7:56 AM 75.0 °F 39.0 °F 27% 29.73 in 10.0 mi WNW 5.8 mph - N/A   Unknown
8:56 AM 79.0 °F 37.9 °F 23% 29.73 in 10.0 mi Calm Calm - N/A   Unknown
9:56 AM 82.0 °F 36.0 °F 19% 29.73 in 10.0 mi Calm Calm - N/A   Unknown
10:56 AM 87.1 °F 30.9 °F 13% 29.72 in 10.0 mi East 5.8 mph - N/A   Unknown
11:56 AM 90.0 °F 28.0 °F 11% 29.71 in 10.0 mi SE 10.4 mph 16.1 mph N/A   Unknown
12:56 PM 91.0 °F 28.0 °F 10% 29.70 in 10.0 mi SSE 4.6 mph - N/A   Unknown
1:56 PM 93.9 °F 24.1 °F 8% 29.68 in 10.0 mi SE 4.6 mph - N/A   Unknown
2:56 PM 96.1 °F 21.0 °F 7% 29.66 in 10.0 mi Variable 4.6 mph - N/A   Unknown
3:56 PM 97.0 °F 21.9 °F 7% 29.66 in 10.0 mi SSW 11.5 mph 18.4 mph N/A   Unknown
4:56 PM 96.1 °F 24.1 °F 8% 29.65 in 10.0 mi SSW 16.1 mph 23.0 mph N/A   Unknown
5:56 PM 95.0 °F 28.0 °F 9% 29.66 in 10.0 mi SSW 16.1 mph - N/A   Unknown
6:56 PM 91.9 °F 30.0 °F 11% 29.67 in 10.0 mi SSW 17.3 mph 24.2 mph N/A   Unknown
7:56 PM 88.0 °F 32.0 °F 14% 29.69 in 10.0 mi SSW 13.8 mph - N/A   Unknown
8:56 PM 84.0 °F 32.0 °F 15% 29.71 in 10.0 mi South 10.4 mph - N/A   Unknown
9:56 PM 82.9 °F 28.9 °F 14% 29.74 in 10.0 mi Calm Calm - N/A   Unknown
10:56 PM 79.0 °F 27.0 °F 15% 29.75 in 10.0 mi SSW 11.5 mph - N/A   Unknown
11:56 PM 73.0 °F 28.0 °F 19% 29.76 in 10.0 mi SSW 8.1 mph - N/A   Unknown